Regional Weather Roundup
Issued by NWS Northern Indiana

Home | Current Version | Previous Version | Graphics & Text | Print | Product List | Glossary On
Versions: 1 2 3 4 5 6 7 8 9 10 11 12 13 14 15 16 17 18 19 20 21 22 23 24 25 26 27 28 29 30 31 32 33 34 35 36 37 38 39 40 41 42 43 44 45 46 47 48 49 50
000
ASUS43 KIWX 210410
RWRIWX

KIWX WEATHER ROUNDUP
NATIONAL WEATHER SERVICE NORTHERN INDIANA
1200 AM EDT THU AUG 21 2014

NOTE: "FAIR" INDICATES FEW OR NO CLOUDS BELOW 12,000 FEET WITH NO
SIGNIFICANT WEATHER AND/OR OBSTRUCTIONS TO VISIBILITY.

* THESE STATIONS ARE NOT UNDER NWS QUALITY CONTROL. THEY ALSO MAY NOT
  REPORT WEATHER SUCH AS PRECIPITATION OR FOG.

INZ001>027-210500-
NORTHERN INDIANA

CITY           SKY/WX    TMP DP  RH WIND       PRES   REMARKS
GARY*          PTCLDY    76  66  72 CALM      29.96S
VALPARAISO     PTCLDY    72  67  84 SW3       29.98R
MICHIGAN CITY* PTCLDY    72  68  88 S5        29.97S
LAPORTE*       MOCLDY    72  71  97 W5        29.99R
KNOX*          CLEAR     71  67  87 SW5       29.98R
SOUTH BEND     CLOUDY    76  67  73 SW9       29.98R
GOSHEN         MOCLDY    75  69  81 SW9       29.99R
MONTICELLO*    MOCLDY    69  68  96 S5        30.00R
LOGANSPORT*    PTCLDY    66  63  88 S6        30.02R
ROCHESTER*     CLEAR     73  68  83 W3        30.01R
WARSAW*        CLEAR     73  70  88 SW5       30.00R
ANGOLA*        PTCLDY    70  61  73 CALM      29.99R
FORT WAYNE     MOCLDY    70  67  90 SW7       30.00R
HUNTINGTON*    CLEAR     71  68  88 SW3       30.01R
PERU/GRISSOM   PTCLDY    69  69  99 S7        30.01R
MARION*        CLEAR     69  64  84 SW6       30.03R

$$
INZ028>050-210500-
CENTRAL INDIANA

CITY           SKY/WX    TMP DP  RH WIND       PRES   REMARKS
LAFAYETTE      CLOUDY    70  68  93 CALM      30.00R
KOKOMO*        PTCLDY    68  64  88 S5        30.02R
MUNCIE*        PTCLDY    72  66  81 SW5       30.02S
INDIANAPOLIS   CLOUDY    73  68  84 S5        30.01S

$$
MIZ043>046-050>051-056>058-064>065-071>073-077>080-210500-
SOUTHWEST LOWER MICHIGAN

CITY           SKY/WX    TMP DP  RH WIND       PRES   REMARKS
BATTLE CREEK   MOCLDY    70  65  84 CALM      29.98R
BENTON HARBOR  CLOUDY    71  67  87 SE5       29.95R
COLDWATER*     CLOUDY    70  67  91 CALM      29.98R
HILLSDALE*     PTCLDY    66  66 100 CALM      29.98S
HOLLAND        PTCLDY    69  65  86 CALM      29.97R
GRAND RAPIDS   PTCLDY    70  66  87 CALM      29.97R
KALAMAZOO      CLOUDY    71  65  81 CALM      29.98R
STURGIS*       MOCLDY    70  66  88 SW5       29.99R
THREE RIVERS*  MOCLDY    71  68  91 CALM      29.98R

$$
OHZ001>008-015>018-024>025-210500-
NORTHWEST OHIO

CITY           SKY/WX    TMP DP  RH WIND       PRES   REMARKS
WAUSEON*       FAIR      66  64  94 CALM      29.98S
DEFIANCE       MOCLDY    70  66  87 CALM      29.98R
FINDLAY        CLEAR     70  66  87 S3        29.98R
TOLEDO EXPRESS CLEAR     68  66  93 CALM      29.97R
TOLEDO METCALF PTCLDY    71  64  78 CALM      29.98R
LIMA           MOCLDY    75  66  73 SW9       30.01R

$$
&&


USA.gov is the U.S. government's official web portal to all federal, state and local government web resources and services.